DateTime,Index
2001121306,0.0
2001121312,0.0
2001121318,0.0
2001121400,0.0
2001121406,0.0
2001121412,0.0
2001121418,0.0
2001121500,1225.0
2001121506,1225.0
2001121512,1225.0
2001121518,1225.0
2001121600,1225.0
2001121606,1225.0
2001121612,1225.0
2001121618,1225.0
2001121700,1225.0
2001121706,1600.0
2001121712,2025.0
2001121718,3025.0
2001121800,3025.0
2001121806,3025.0
2001121812,3025.0
2001121818,3025.0
2001121900,3025.0
2001121906,3025.0
2001121912,3025.0
2001121918,2500.0
2001122000,2025.0
2001122006,3025.0
2001122012,3600.0
2001122018,4225.0
2001122100,5625.0
2001122106,8100.0
2001122112,11025.0
2001122118,14400.0
2001122200,18225.0
2001122206,19600.0
2001122212,19600.0
2001122218,22500.0
2001122300,24025.0
2001122306,22500.0
2001122312,19600.0
2001122318,15625.0
2001122400,13225.0
2001122406,13225.0
2001122412,11025.0
2001122418,9025.0
2001122500,7225.0
2001122506,5625.0
2001122512,4900.0
2001122518,4225.0
